ASA580 KSFO-KSEA

Flight info

Callsign ASA580
Flight time N/A
Altitude 38000
Route TRUKN2 DEDHD RBL LMT HAWKZ8
Aircraft B738/M-SDGIRW/LB1

Departure

Time 2026-05-04 19:02
Airport San Francisco International Airport (KSFO)

Arrival

Time N/A
Airport Seattle–Tacoma International Airport (KSEA)
Time Latitude Longitude Altitude Speed Heading
2026-05-04 18:45 37.61243 -122.38578 21 ft 0 kts 118°
2026-05-04 18:51 37.61252 -122.38599 23 ft 4 kts 118°
2026-05-04 18:51 37.61264 -122.38629 23 ft 4 kts 118°
2026-05-04 18:51 37.61278 -122.38659 23 ft 4 kts 123°
2026-05-04 18:51 37.61294 -122.38686 21 ft 4 kts 133°
2026-05-04 18:52 37.61305 -122.38699 21 ft 0 kts 145°
2026-05-04 18:54 37.61269 -122.38682 21 ft 10 kts 176°
2026-05-04 18:54 37.61205 -122.38714 21 ft 10 kts 208°
2026-05-04 18:54 37.61144 -122.38754 21 ft 10 kts 207°
2026-05-04 18:55 37.61086 -122.38793 21 ft 9 kts 208°
2026-05-04 18:55 37.60975 -122.38780 21 ft 11 kts 121°
2026-05-04 18:55 37.60935 -122.38686 22 ft 13 kts 118°
2026-05-04 18:56 37.60892 -122.38583 21 ft 13 kts 117°
2026-05-04 18:56 37.60828 -122.38502 21 ft 14 kts 174°
2026-05-04 18:56 37.60729 -122.38499 21 ft 14 kts 178°
2026-05-04 18:56 37.60648 -122.38440 21 ft 15 kts 130°
2026-05-04 18:57 37.60574 -122.38329 21 ft 17 kts 130°
2026-05-04 18:57 37.60505 -122.38202 22 ft 18 kts 111°
2026-05-04 18:57 37.60515 -122.38045 24 ft 20 kts 80°
2026-05-04 18:57 37.60608 -122.37926 23 ft 24 kts 27°
2026-05-04 18:58 37.60765 -122.37823 21 ft 25 kts 27°
2026-05-04 18:58 37.60933 -122.37713 21 ft 28 kts 27°
2026-05-04 18:58 37.61100 -122.37605 22 ft 26 kts 26°
2026-05-04 18:58 37.61257 -122.37506 21 ft 24 kts 26°
2026-05-04 18:59 37.61405 -122.37416 21 ft 23 kts 25°
2026-05-04 18:59 37.61527 -122.37306 22 ft 22 kts 56°
2026-05-04 18:59 37.61556 -122.37130 21 ft 21 kts 104°
2026-05-04 18:59 37.61492 -122.36969 21 ft 20 kts 118°
2026-05-04 19:00 37.61404 -122.36837 21 ft 20 kts 133°
2026-05-04 19:00 37.61325 -122.36703 22 ft 19 kts 110°
2026-05-04 19:00 37.61262 -122.36534 21 ft 24 kts 118°
2026-05-04 19:00 37.61186 -122.36353 21 ft 23 kts 118°
2026-05-04 19:01 37.61111 -122.36180 21 ft 22 kts 118°
2026-05-04 19:01 37.61050 -122.36006 21 ft 21 kts 93°
2026-05-04 19:01 37.61122 -122.35889 21 ft 8 kts 27°
2026-05-04 19:01 37.61174 -122.35867 21 ft 8 kts 344°
2026-05-04 19:02 37.61209 -122.35928 23 ft 12 kts 298°
2026-05-04 19:02 37.61354 -122.36276 21 ft 90 kts 297°
2026-05-04 19:02 37.61787 -122.37297 53 ft 168 kts 296°
2026-05-04 19:02 37.62389 -122.38695 830 ft 189 kts 298°
2026-05-04 19:03 37.62883 -122.40280 1822 ft 193 kts 288°
2026-05-04 19:03 37.63672 -122.41755 2296 ft 223 kts 324°
2026-05-04 19:03 37.65185 -122.42202 3013 ft 239 kts
2026-05-04 19:03 37.66682 -122.41215 4017 ft 249 kts 47°
2026-05-04 19:04 37.67408 -122.39266 5108 ft 248 kts 78°
2026-05-04 19:04 37.67817 -122.37148 6049 ft 250 kts 76°
2026-05-04 19:04 37.68280 -122.35074 6942 ft 249 kts 75°
2026-05-04 19:04 37.68784 -122.32965 7623 ft 254 kts 75°
2026-05-04 19:05 37.69320 -122.30832 8339 ft 255 kts 74°
2026-05-04 19:05 37.69870 -122.28697 9063 ft 257 kts 73°
2026-05-04 19:05 37.70427 -122.26554 9801 ft 257 kts 72°
2026-05-04 19:05 37.70989 -122.24404 10487 ft 258 kts 71°
2026-05-04 19:06 37.71895 -122.22436 11068 ft 263 kts 45°
2026-05-04 19:06 37.73453 -122.21241 11775 ft 266 kts 20°
2026-05-04 19:06 37.75280 -122.20767 12377 ft 271 kts 10°
2026-05-04 19:06 37.77159 -122.20459 12985 ft 274 kts
2026-05-04 19:07 37.79062 -122.20174 13595 ft 276 kts
2026-05-04 19:07 37.80979 -122.19888 14182 ft 279 kts
2026-05-04 19:07 37.82908 -122.19594 14740 ft 280 kts
2026-05-04 19:07 37.84859 -122.19290 15270 ft 285 kts
2026-05-04 19:08 37.86194 -122.19078 15391 ft 301 kts
2026-05-04 19:08 37.89109 -122.18605 15619 ft 336 kts
2026-05-04 19:08 37.91507 -122.18215 15783 ft 358 kts 10°
2026-05-04 19:08 37.93211 -122.17937 15927 ft 372 kts 10°
2026-05-04 19:09 37.95822 -122.17511 16405 ft 382 kts 10°
2026-05-04 19:09 37.98474 -122.17080 17146 ft 385 kts 10°
2026-05-04 19:09 38.01105 -122.16652 17941 ft 387 kts 11°
2026-05-04 19:09 38.03825 -122.16208 18635 ft 391 kts 11°
2026-05-04 19:10 38.06528 -122.15765 19286 ft 393 kts 11°
2026-05-04 19:10 38.08323 -122.15471 19750 ft 393 kts 11°
2026-05-04 19:10 38.11958 -122.14874 20668 ft 394 kts 12°
2026-05-04 19:10 38.14680 -122.14426 21331 ft 396 kts 12°
2026-05-04 19:11 38.17384 -122.13980 21920 ft 398 kts 12°
2026-05-04 19:11 38.20139 -122.13525 22567 ft 400 kts 12°
2026-05-04 19:11 38.22904 -122.13068 23179 ft 402 kts 12°
2026-05-04 19:11 38.25686 -122.12609 23747 ft 404 kts 13°
2026-05-04 19:12 38.28482 -122.12147 24222 ft 406 kts 13°
2026-05-04 19:12 38.34121 -122.11304 25125 ft 413 kts
2026-05-04 19:12 38.37028 -122.11379 25509 ft 421 kts
2026-05-04 19:13 38.39960 -122.11596 25933 ft 424 kts
2026-05-04 19:13 38.42911 -122.11836 26353 ft 426 kts
2026-05-04 19:13 38.45875 -122.12076 26807 ft 427 kts
2026-05-04 19:13 38.48846 -122.12307 27240 ft 429 kts
2026-05-04 19:14 38.51833 -122.12528 27604 ft 431 kts
2026-05-04 19:14 38.54847 -122.12742 27815 ft 437 kts
2026-05-04 19:14 38.57906 -122.12953 28016 ft 443 kts
2026-05-04 19:14 38.60988 -122.13166 28398 ft 444 kts
2026-05-04 19:15 38.64070 -122.13378 28836 ft 444 kts
2026-05-04 19:15 38.67171 -122.13592 29218 ft 446 kts
2026-05-04 19:15 38.70222 -122.13802 29649 ft 445 kts
2026-05-04 19:15 38.73315 -122.14016 30117 ft 444 kts
2026-05-04 19:16 38.76417 -122.14229 30337 ft 448 kts
2026-05-04 19:16 38.79541 -122.14443 30623 ft 449 kts
2026-05-04 19:16 38.82662 -122.14659 31018 ft 449 kts
2026-05-04 19:16 38.85777 -122.14875 31479 ft 447 kts
2026-05-04 19:17 38.88881 -122.15090 31890 ft 447 kts
2026-05-04 19:17 38.91992 -122.15306 32232 ft 448 kts
2026-05-04 19:17 38.95095 -122.15521 32687 ft 445 kts
2026-05-04 19:17 38.98182 -122.15736 33154 ft 443 kts
2026-05-04 19:18 39.01254 -122.15950 33582 ft 442 kts
2026-05-04 19:18 39.04328 -122.16163 33949 ft 442 kts
2026-05-04 19:18 39.07401 -122.16375 34266 ft 441 kts
2026-05-04 19:18 39.10468 -122.16588 34485 ft 443 kts
2026-05-04 19:19 39.13545 -122.16802 34800 ft 442 kts
2026-05-04 19:19 39.16574 -122.17013 35074 ft 442 kts
2026-05-04 19:19 39.19660 -122.17227 35253 ft 445 kts
2026-05-04 19:19 39.22758 -122.17442 35450 ft 447 kts
2026-05-04 19:20 39.25866 -122.17658 35709 ft 447 kts
2026-05-04 19:20 39.28970 -122.17875 35934 ft 448 kts
2026-05-04 19:20 39.32085 -122.18094 36192 ft 448 kts
2026-05-04 19:20 39.35199 -122.18312 36453 ft 448 kts
2026-05-04 19:21 39.38320 -122.18531 36649 ft 450 kts
2026-05-04 19:21 39.41451 -122.18750 36857 ft 451 kts
2026-05-04 19:21 39.44595 -122.18971 37099 ft 451 kts
2026-05-04 19:21 39.47729 -122.19191 37345 ft 452 kts 360°
2026-05-04 19:22 39.50866 -122.19412 37629 ft 451 kts 360°
2026-05-04 19:22 39.53993 -122.19633 37932 ft 450 kts 359°
2026-05-04 19:22 39.57088 -122.19850 38024 ft 453 kts 359°
2026-05-04 19:23 39.63412 -122.20296 38031 ft 455 kts 359°
2026-05-04 19:23 39.69699 -122.20742 38019 ft 449 kts 360°
2026-05-04 19:24 39.75915 -122.21183 38029 ft 445 kts 360°
2026-05-04 19:24 39.82090 -122.21620 38029 ft 443 kts 360°
2026-05-04 19:25 39.88191 -122.22053 38032 ft 441 kts
2026-05-04 19:25 39.94321 -122.22488 38030 ft 441 kts
2026-05-04 19:26 40.00460 -122.22925 38031 ft 442 kts
2026-05-04 19:26 40.06621 -122.23365 38033 ft 444 kts
2026-05-04 19:27 40.12762 -122.23063 38039 ft 440 kts 13°
2026-05-04 19:27 40.18787 -122.21577 38043 ft 442 kts 14°
2026-05-04 19:28 40.24852 -122.20045 38028 ft 444 kts 14°
2026-05-04 19:28 40.30940 -122.18548 38035 ft 444 kts 13°
2026-05-04 19:29 40.36984 -122.17083 38007 ft 444 kts 13°
2026-05-04 19:29 40.43071 -122.15613 38012 ft 444 kts 13°
2026-05-04 19:30 40.49143 -122.14144 38013 ft 442 kts 13°
2026-05-04 19:30 40.55186 -122.12678 38008 ft 441 kts 13°
2026-05-04 19:31 40.61167 -122.11224 38010 ft 439 kts 13°
2026-05-04 19:31 40.67177 -122.09760 38013 ft 438 kts 14°
2026-05-04 19:32 40.73160 -122.08300 38015 ft 436 kts 14°
2026-05-04 19:32 40.79129 -122.06841 38014 ft 435 kts 14°
2026-05-04 19:33 40.85077 -122.05384 38029 ft 434 kts 14°
2026-05-04 19:33 40.91017 -122.03927 38003 ft 433 kts 14°
2026-05-04 19:34 40.96919 -122.02476 38008 ft 432 kts 14°
2026-05-04 19:34 41.02830 -122.01020 38002 ft 432 kts 14°
2026-05-04 19:35 41.08718 -121.99567 37985 ft 432 kts 14°
2026-05-04 19:35 41.14626 -121.98106 37974 ft 432 kts 14°
2026-05-04 19:36 41.20528 -121.96645 37978 ft 431 kts 14°
2026-05-04 19:36 41.26429 -121.95181 37974 ft 431 kts 14°
2026-05-04 19:37 41.32302 -121.93722 37963 ft 431 kts 14°
2026-05-04 19:37 41.38206 -121.92251 37963 ft 431 kts 14°
2026-05-04 19:38 41.44095 -121.90783 37944 ft 430 kts 14°
2026-05-04 19:38 41.49985 -121.89310 37936 ft 430 kts 14°
2026-05-04 19:39 41.55864 -121.87839 37929 ft 429 kts 14°
2026-05-04 19:39 41.61698 -121.86376 37923 ft 428 kts 14°
2026-05-04 19:40 41.67549 -121.84905 37915 ft 427 kts 14°
2026-05-04 19:40 41.73376 -121.83438 37900 ft 425 kts 15°
2026-05-04 19:41 41.79181 -121.81974 37897 ft 424 kts 15°
2026-05-04 19:41 41.84977 -121.80510 37898 ft 423 kts 15°
2026-05-04 19:42 41.90751 -121.79047 37905 ft 422 kts 15°
2026-05-04 19:42 41.96477 -121.77595 37911 ft 420 kts 15°
2026-05-04 19:43 42.02228 -121.76134 37939 ft 419 kts 15°
2026-05-04 19:43 42.07954 -121.74675 37952 ft 418 kts 15°
2026-05-04 19:44 42.13686 -121.73217 37952 ft 419 kts 14°
2026-05-04 19:44 42.16622 -121.72970 37940 ft 428 kts 359°
2026-05-04 19:44 42.19585 -121.73578 37853 ft 431 kts 356°
2026-05-04 19:45 42.25467 -121.74999 37843 ft 432 kts 355°
2026-05-04 19:45 42.31409 -121.76420 37836 ft 434 kts 356°
2026-05-04 19:46 42.37373 -121.77799 37835 ft 434 kts 356°
2026-05-04 19:46 42.43335 -121.79158 37845 ft 435 kts 356°
2026-05-04 19:47 42.49286 -121.80514 37843 ft 435 kts 356°
2026-05-04 19:47 42.55267 -121.81879 37833 ft 435 kts 356°
2026-05-04 19:48 42.61229 -121.83245 37858 ft 434 kts 356°
2026-05-04 19:48 42.67154 -121.84604 37856 ft 433 kts 356°
2026-05-04 19:49 42.73091 -121.85968 37857 ft 432 kts 356°
2026-05-04 19:49 42.79007 -121.87331 37848 ft 430 kts 356°
2026-05-04 19:50 42.84891 -121.88689 37864 ft 428 kts 357°
2026-05-04 19:50 42.90754 -121.90044 37872 ft 426 kts 357°
2026-05-04 19:51 42.96580 -121.91393 37870 ft 424 kts 357°
2026-05-04 19:51 43.02361 -121.92734 37884 ft 422 kts 357°
2026-05-04 19:52 43.08157 -121.94081 37894 ft 421 kts 357°
2026-05-04 19:52 43.13940 -121.95428 37892 ft 420 kts 357°
2026-05-04 19:53 43.19697 -121.96771 37904 ft 419 kts 357°
2026-05-04 19:53 43.25449 -121.98116 37918 ft 419 kts 357°
2026-05-04 19:54 43.31176 -121.99457 37892 ft 420 kts 357°
2026-05-04 19:54 43.36934 -122.00809 37919 ft 420 kts 357°
2026-05-04 19:55 43.42696 -122.02166 37930 ft 419 kts 357°
2026-05-04 19:55 43.47477 -122.03295 37925 ft 419 kts 357°
2026-05-04 19:56 43.54141 -122.04872 37928 ft 417 kts 357°
2026-05-04 19:56 43.58923 -122.06005 37954 ft 416 kts 357°
2026-05-04 19:57 43.64592 -122.07350 37929 ft 415 kts 357°
2026-05-04 19:57 43.70284 -122.08705 37909 ft 415 kts 357°
2026-05-04 19:58 43.75955 -122.10056 37957 ft 413 kts 357°
2026-05-04 19:58 43.81606 -122.11406 37949 ft 411 kts 357°
2026-05-04 19:59 43.87248 -122.12754 37975 ft 410 kts 356°
2026-05-04 19:59 43.92882 -122.14101 37978 ft 411 kts 356°
2026-05-04 20:00 43.98503 -122.15450 37957 ft 412 kts 357°
2026-05-04 20:00 44.04155 -122.16811 37972 ft 412 kts 356°
2026-05-04 20:01 44.09807 -122.18174 37982 ft 412 kts 357°
2026-05-04 20:01 44.15465 -122.19540 37994 ft 411 kts 356°
2026-05-04 20:02 44.21112 -122.20906 37959 ft 412 kts 356°
2026-05-04 20:02 44.26765 -122.22276 37978 ft 412 kts 356°
2026-05-04 20:03 44.32388 -122.23640 37956 ft 412 kts 356°
2026-05-04 20:03 44.38047 -122.25020 37960 ft 411 kts 356°
2026-05-04 20:04 44.43678 -122.26395 37983 ft 410 kts 356°
2026-05-04 20:04 44.49295 -122.27768 37976 ft 409 kts 356°
2026-05-04 20:05 44.54869 -122.29132 37954 ft 409 kts 356°
2026-05-04 20:05 44.60473 -122.30507 37963 ft 408 kts 356°
2026-05-04 20:06 44.66073 -122.31884 37965 ft 408 kts 356°
2026-05-04 20:06 44.71666 -122.33260 37956 ft 408 kts 356°
2026-05-04 20:07 44.77266 -122.34642 37972 ft 408 kts 355°
2026-05-04 20:07 44.82820 -122.36015 37974 ft 408 kts 355°
2026-05-04 20:07 44.85634 -122.36689 37707 ft 414 kts 356°
2026-05-04 20:08 44.88506 -122.37335 37310 ft 421 kts 356°
2026-05-04 20:08 44.91413 -122.37935 37064 ft 423 kts 357°
2026-05-04 20:08 44.94321 -122.38455 37081 ft 419 kts 358°
2026-05-04 20:08 44.97202 -122.38863 37285 ft 412 kts 360°
2026-05-04 20:09 45.00034 -122.39158 37472 ft 406 kts
2026-05-04 20:09 45.05679 -122.39506 37347 ft 407 kts
2026-05-04 20:09 45.08526 -122.39588 37129 ft 411 kts
2026-05-04 20:10 45.11397 -122.39615 36978 ft 413 kts
2026-05-04 20:10 45.17109 -122.39444 37101 ft 406 kts
2026-05-04 20:10 45.19923 -122.39241 37254 ft 402 kts
2026-05-04 20:11 45.22713 -122.38978 37311 ft 400 kts
2026-05-04 20:11 45.28254 -122.38307 37074 ft 405 kts
2026-05-04 20:11 45.31066 -122.37887 36941 ft 407 kts
2026-05-04 20:12 45.33877 -122.37418 36916 ft 406 kts 10°
2026-05-04 20:12 45.39451 -122.36337 36984 ft 402 kts 12°